This is the latest recevied weather packets stored in our database for station/object KO4LCK. If no packets are shown the sender has not sent any weather packets the latest 10 day(s).
| Time | Temp. | Humidity | Pressure | Rain* | Wind** | Luminosity | Snow |
|---|---|---|---|---|---|---|---|
| 1777952695 | 13.89° C | 74% | 1015.3 hPa | 0 mm | - | 0 W/m² | - |
| 1777952392 | 13.89° C | 74% | 1015.3 hPa | 0 mm | - | 0 W/m² | - |
| 1777952089 | 13.89° C | 73% | 1015.4 hPa | 0 mm | - | 0 W/m² | - |
| 1777951787 | 14.44° C | 72% | 1015.3 hPa | 0 mm | - | 0 W/m² | - |
| 1777951484 | 14.44° C | 71% | 1015.3 hPa | 0 mm | - | 0 W/m² | - |
| 1777951180 | 15° C | 71% | 1015.4 hPa | 0 mm | - | 0 W/m² | - |
| 1777950878 | 15° C | 71% | 1015.3 hPa | 0 mm | - | 0 W/m² | - |
| 1777950575 | 15° C | 72% | 1015.3 hPa | 0 mm | - | 0 W/m² | - |
| 1777950270 | 15° C | 73% | 1015.4 hPa | 0 mm | - | 0 W/m² | - |
| 1777949966 | 15° C | 68% | 1015.2 hPa | 0 mm | - | 0 W/m² | - |
| 1777949663 | 15° C | 67% | 1015.3 hPa | 0 mm | - | 0 W/m² | - |
| 1777949362 | 15° C | 67% | 1015.2 hPa | 0 mm | - | 0 W/m² | - |
| 1777949059 | 15° C | 67% | 1015.4 hPa | 0 mm | - | 0 W/m² | - |
| 1777948756 | 15.56° C | 68% | 1015.3 hPa | 0 mm | - | 0 W/m² | - |
| 1777948453 | 15.56° C | 67% | 1015.2 hPa | 0 mm | - | 0 W/m² | - |
| 1777948150 | 16.11° C | 67% | 1015.2 hPa | 0 mm | - | 0 W/m² | - |
| 1777947848 | 16.11° C | 64% | 1015.2 hPa | 0 mm | - | 0 W/m² | - |
| 1777947545 | 16.11° C | 64% | 1015.1 hPa | 0 mm | - | 0 W/m² | - |
| 1777947241 | 16.11° C | 64% | 1015 hPa | 0 mm | - | 0 W/m² | - |
| 1777946937 | 16.11° C | 64% | 1015.2 hPa | 0 mm | - | 0 W/m² | - |
| 1777946633 | 16.11° C | 62% | 1015.1 hPa | 0 mm | - | 0 W/m² | - |
| 1777946330 | 16.67° C | 67% | 1014.9 hPa | 0 mm | - | 0 W/m² | - |
| 1777946027 | 17.22° C | 65% | 1014.9 hPa | 0 mm | - | 0 W/m² | - |
| 1777945724 | 17.22° C | 62% | 1014.8 hPa | 0 mm | - | 0 W/m² | - |
| 1777945421 | 17.22° C | 60% | 1014.7 hPa | 0 mm | - | 0 W/m² | - |
* Rain latest hour (hover to see other rain measurements)
** Current wind speed in m/s (hover to see current wind gust speed)